Flag for U.S.A. Weather past 2 weeks in Barnstable, Massachusetts, U.S.A.

Now
80 °F

Sunny.


Feels Like: 80 °F
Forecast: 64 / 80 °F
Wind: 17 mph from Southwest

Location: Barnstable Municipal-Boardman Airport

Current Time: Aug 27, 2014 at 3:21:42 PM

Latest Report: Aug 27, 2014 at 2:56 PM


Visibility: 10 mi

Pressure: 29.92 "Hg

Humidity: 45%

Dew point: 57 °F

Location of BarnstableLocation

Historic Weather in Barnstable — Graph

°F

Barnstable temperature yesterday

Maximum temperature yesterday: 75 °F (at 11:56 AM)
Minimum temperature yesterday: 55 °F (at 4:56 AM)
Average temperature yesterday: 67 °F

Past Weeks' High & Low Weather Summary

 TemperatureHumidityPressure
High81 °F (Aug 27, 1:56 PM)94% (Aug 21, 3:56 AM)30.18 "Hg (Aug 21, 3:56 AM)
Low53 °F (Aug 19, 4:56 AM)42% (Aug 14, 1:56 PM)29.63 "Hg (Aug 13, 10:56 PM)
Average68 °F75%29.97 "Hg
* Reported Aug 12 1:56 PM — Aug 27 1:56 PM, Barnstable, Weather by CustomWeather, © 2014

Note: Actual official high and low records may vary slightly from our data, if they occured in-between our weather recording intervals... More about our weather records

Advertising

Barnstable weather history for previous 24 hours

 ConditionsComfort  
Time TempWeatherWind HumidityBarometerVisibility
1:56 PM
Aug 27
81 °FSunny.15 mph49%29.93 "Hg10 mi
12:56 PM80 °FSunny.18 mph51%29.95 "Hg10 mi
11:56 AM79 °FSunny.15 mph58%29.98 "Hg10 mi
10:56 AM78 °FSunny.15 mph64%30.00 "Hg2 mi
9:56 AM75 °FPassing clouds.14 mph74%30.01 "Hg10 mi
8:56 AM73 °FPassing clouds.12 mph81%30.02 "Hg10 mi
7:56 AM71 °FSunny.12 mph81%30.03 "Hg10 mi
6:56 AM69 °FClear.6 mph87%30.01 "Hg8 mi
5:56 AM65 °FMild.No wind91%30.01 "Hg10 mi
4:56 AM66 °FMild.5 mph93%30.01 "Hg10 mi
3:56 AM66 °FMild.6 mph93%30.01 "Hg10 mi
2:56 AM67 °FClear.8 mph90%30.02 "Hg10 mi
1:56 AM68 °FClear.8 mph84%30.03 "Hg10 mi
12:56 AM68 °FClear.6 mph84%30.05 "Hg10 mi
11:56 PM
Aug 26
68 °FClear.12 mph82%30.07 "Hg10 mi
10:56 PM68 °FClear.8 mph82%30.09 "Hg10 mi
9:56 PM68 °FClear.9 mph78%30.09 "Hg10 mi
8:56 PM68 °FClear.8 mph76%30.09 "Hg10 mi
7:56 PM69 °FSunny.9 mph73%30.08 "Hg10 mi
6:56 PM70 °FSunny.9 mph71%30.08 "Hg10 mi
5:56 PM73 °FSunny.8 mph53%30.09 "Hg10 mi
4:56 PM74 °FSunny.8 mph56%30.10 "Hg10 mi
3:56 PM73 °FSunny.9 mph66%30.12 "Hg10 mi
Weather by CustomWeather, © 2014

See weather overviewHow to use our weather pages